(°C)
25°
26°
27°
28°
30°
30°
31°
(°C)
30°
31°
32°
33°
34°
35°
35°
J
J
JJZ
JJZ
JZ
JZ
ZJZ
(km/h)
3-8
2-8
3-9
4-11
5-13
7-16
8-20
(mm)
0
0
0
0
0
0
0
(%)
5
3
19
36
53
52
51

Podizanje Sunca

/ 14.7°
sun-icon
UV 4
06:33
20:30
Rastući mesec (162°)
19:39
05:15

METAR za Тампа (KTPF)

Vreme Uslovi Temperatura/
Tačka rose
Vetar Vidljivost Prognoza Oblaci Pritisak Promena Neobrađeno
VFR 25°C / 23°C variable 0kt >10km - Broken Clouds 11000ft - KTPF 231135Z AUTO 00000KT 10SM BKN110 25/23 A3007 RMK AO2
VFR 25°C / 23°C variable 0kt >10km - Overcast 11000ft - KTPF 231115Z AUTO 00000KT 10SM OVC110 25/23 A3006 RMK AO2
VFR 24°C / 23°C variable 0kt >10km - Broken Clouds 11000ft - KTPF 231055Z AUTO 00000KT 10SM BKN110 24/23 A3007 RMK AO2
VFR 24°C / 23°C 80º 3kt >10km - Broken Clouds 11000ft - KTPF 231035Z AUTO 08003KT 10SM BKN110 24/23 A3007 RMK AO2
VFR 25°C / 23°C 90º 3kt >10km - Broken Clouds 11000ft - KTPF 231015Z AUTO 09003KT 10SM BKN110 25/23 A3006 RMK AO2
VFR 25°C / 23°C 110º 3kt >10km - Broken Clouds 11000ft - KTPF 230955Z AUTO 11003KT 10SM BKN110 25/23 A3006 RMK AO2
VFR 25°C / 23°C variable 0kt >10km - Scattered Clouds 11000ft - KTPF 230935Z AUTO 00000KT 10SM SCT110 25/23 A3006 RMK AO2
VFR 25°C / 23°C variable 0kt >10km - Broken Clouds 11000ft - KTPF 230915Z AUTO 00000KT 10SM BKN110 25/23 A3006 RMK AO2
VFR 25°C / 23°C variable 0kt >10km - Broken Clouds 11000ft - KTPF 230855Z AUTO 00000KT 10SM BKN110 25/23 A3006 RMK AO2
VFR 25°C / 23°C variable 0kt >10km - Scattered Clouds 11000ft - KTPF 230835Z AUTO 00000KT 10SM SCT110 25/23 A3006 RMK AO2
VFR 25°C / 23°C variable 0kt >10km - Broken Clouds 11000ft - KTPF 230815Z AUTO 00000KT 10SM BKN110 25/23 A3006 RMK AO2
VFR 25°C / 23°C variable 0kt >10km - Broken Clouds 11000ft - KTPF 230755Z AUTO 00000KT 10SM BKN110 25/23 A3005 RMK AO2
VFR 25°C / 23°C 150º 3kt >10km - Broken Clouds 11000ft - KTPF 230735Z AUTO 15003KT 10SM BKN110 25/23 A3005 RMK AO2
VFR 25°C / 23°C variable 0kt >10km - Broken Clouds 11000ft - KTPF 230715Z AUTO 00000KT 10SM BKN110 25/23 A3006 RMK AO2
VFR 25°C / 23°C variable 0kt >10km - Broken Clouds 11000ft - KTPF 230655Z AUTO 00000KT 10SM BKN110 25/23 A3006 RMK AO2
VFR 25°C / 23°C variable 0kt >10km - Broken Clouds 11000ft - KTPF 230635Z AUTO 00000KT 10SM BKN110 25/23 A3007 RMK AO2
VFR 25°C / 23°C variable 0kt >10km - Scattered Clouds 11000ft - KTPF 230615Z AUTO 00000KT 10SM SCT110 25/23 A3008 RMK AO2
VFR 25°C / 23°C 90º 3kt >10km - Scattered Clouds 11000ft - KTPF 230555Z AUTO 09003KT 10SM SCT110 25/23 A3009 RMK AO2
VFR 25°C / 23°C variable 0kt >10km - Broken Clouds 11000ft - KTPF 230535Z AUTO 00000KT 10SM BKN110 25/23 A3009 RMK AO2
VFR 25°C / 23°C 120º 3kt >10km - Scattered Clouds 11000ft - KTPF 230515Z AUTO 12003KT 10SM SCT110 25/23 A3009 RMK AO2
VFR 25°C / 23°C 130º 3kt >10km - Scattered Clouds 11000ft - KTPF 230455Z AUTO 13003KT 10SM SCT110 25/23 A3009 RMK AO2
VFR 25°C / 23°C 90º 3kt >10km - Scattered Clouds 11000ft - KTPF 230435Z AUTO 09003KT 10SM SCT110 25/23 A3009 RMK AO2
VFR 25°C / 23°C variable 0kt >10km - Scattered Clouds 11000ft - KTPF 230415Z AUTO 00000KT 10SM SCT110 25/23 A3009 RMK AO2
VFR 25°C / 23°C 110º 4kt >10km - Scattered Clouds 11000ft - KTPF 230355Z AUTO 11004KT 10SM SCT110 25/23 A3009 RMK AO2

VFR

25°C / 23°C

[Više]
Vetar variable 0kt
Vidljivost >10km
Prognoza -
Oblaci Broken Clouds 11000ft
Pritisak
Promena -
Neobrađeno KTPF 231135Z AUTO 00000KT 10SM BKN110 25/23 A3007 RMK AO2

VFR

25°C / 23°C

[Više]
Vetar variable 0kt
Vidljivost >10km
Prognoza -
Oblaci Overcast 11000ft
Pritisak
Promena -
Neobrađeno KTPF 231115Z AUTO 00000KT 10SM OVC110 25/23 A3006 RMK AO2

VFR

24°C / 23°C

[Više]
Vetar variable 0kt
Vidljivost >10km
Prognoza -
Oblaci Broken Clouds 11000ft
Pritisak
Promena -
Neobrađeno KTPF 231055Z AUTO 00000KT 10SM BKN110 24/23 A3007 RMK AO2

VFR

24°C / 23°C

[Više]
Vetar 80º 3kt
Vidljivost >10km
Prognoza -
Oblaci Broken Clouds 11000ft
Pritisak
Promena -
Neobrađeno KTPF 231035Z AUTO 08003KT 10SM BKN110 24/23 A3007 RMK AO2

VFR

25°C / 23°C

[Više]
Vetar 90º 3kt
Vidljivost >10km
Prognoza -
Oblaci Broken Clouds 11000ft
Pritisak
Promena -
Neobrađeno KTPF 231015Z AUTO 09003KT 10SM BKN110 25/23 A3006 RMK AO2

VFR

25°C / 23°C

[Više]
Vetar 110º 3kt
Vidljivost >10km
Prognoza -
Oblaci Broken Clouds 11000ft
Pritisak
Promena -
Neobrađeno KTPF 230955Z AUTO 11003KT 10SM BKN110 25/23 A3006 RMK AO2

VFR

25°C / 23°C

[Više]
Vetar variable 0kt
Vidljivost >10km
Prognoza -
Oblaci Scattered Clouds 11000ft
Pritisak
Promena -
Neobrađeno KTPF 230935Z AUTO 00000KT 10SM SCT110 25/23 A3006 RMK AO2

VFR

25°C / 23°C

[Više]
Vetar variable 0kt
Vidljivost >10km
Prognoza -
Oblaci Broken Clouds 11000ft
Pritisak
Promena -
Neobrađeno KTPF 230915Z AUTO 00000KT 10SM BKN110 25/23 A3006 RMK AO2

VFR

25°C / 23°C

[Više]
Vetar variable 0kt
Vidljivost >10km
Prognoza -
Oblaci Broken Clouds 11000ft
Pritisak
Promena -
Neobrađeno KTPF 230855Z AUTO 00000KT 10SM BKN110 25/23 A3006 RMK AO2

VFR

25°C / 23°C

[Više]
Vetar variable 0kt
Vidljivost >10km
Prognoza -
Oblaci Scattered Clouds 11000ft
Pritisak
Promena -
Neobrađeno KTPF 230835Z AUTO 00000KT 10SM SCT110 25/23 A3006 RMK AO2

VFR

25°C / 23°C

[Više]
Vetar variable 0kt
Vidljivost >10km
Prognoza -
Oblaci Broken Clouds 11000ft
Pritisak
Promena -
Neobrađeno KTPF 230815Z AUTO 00000KT 10SM BKN110 25/23 A3006 RMK AO2

VFR

25°C / 23°C

[Više]
Vetar variable 0kt
Vidljivost >10km
Prognoza -
Oblaci Broken Clouds 11000ft
Pritisak
Promena -
Neobrađeno KTPF 230755Z AUTO 00000KT 10SM BKN110 25/23 A3005 RMK AO2

VFR

25°C / 23°C

[Više]
Vetar 150º 3kt
Vidljivost >10km
Prognoza -
Oblaci Broken Clouds 11000ft
Pritisak
Promena -
Neobrađeno KTPF 230735Z AUTO 15003KT 10SM BKN110 25/23 A3005 RMK AO2

VFR

25°C / 23°C

[Više]
Vetar variable 0kt
Vidljivost >10km
Prognoza -
Oblaci Broken Clouds 11000ft
Pritisak
Promena -
Neobrađeno KTPF 230715Z AUTO 00000KT 10SM BKN110 25/23 A3006 RMK AO2

VFR

25°C / 23°C

[Više]
Vetar variable 0kt
Vidljivost >10km
Prognoza -
Oblaci Broken Clouds 11000ft
Pritisak
Promena -
Neobrađeno KTPF 230655Z AUTO 00000KT 10SM BKN110 25/23 A3006 RMK AO2

VFR

25°C / 23°C

[Više]
Vetar variable 0kt
Vidljivost >10km
Prognoza -
Oblaci Broken Clouds 11000ft
Pritisak
Promena -
Neobrađeno KTPF 230635Z AUTO 00000KT 10SM BKN110 25/23 A3007 RMK AO2

VFR

25°C / 23°C

[Više]
Vetar variable 0kt
Vidljivost >10km
Prognoza -
Oblaci Scattered Clouds 11000ft
Pritisak
Promena -
Neobrađeno KTPF 230615Z AUTO 00000KT 10SM SCT110 25/23 A3008 RMK AO2

VFR

25°C / 23°C

[Više]
Vetar 90º 3kt
Vidljivost >10km
Prognoza -
Oblaci Scattered Clouds 11000ft
Pritisak
Promena -
Neobrađeno KTPF 230555Z AUTO 09003KT 10SM SCT110 25/23 A3009 RMK AO2

VFR

25°C / 23°C

[Više]
Vetar variable 0kt
Vidljivost >10km
Prognoza -
Oblaci Broken Clouds 11000ft
Pritisak
Promena -
Neobrađeno KTPF 230535Z AUTO 00000KT 10SM BKN110 25/23 A3009 RMK AO2

VFR

25°C / 23°C

[Više]
Vetar 120º 3kt
Vidljivost >10km
Prognoza -
Oblaci Scattered Clouds 11000ft
Pritisak
Promena -
Neobrađeno KTPF 230515Z AUTO 12003KT 10SM SCT110 25/23 A3009 RMK AO2

VFR

25°C / 23°C

[Više]
Vetar 130º 3kt
Vidljivost >10km
Prognoza -
Oblaci Scattered Clouds 11000ft
Pritisak
Promena -
Neobrađeno KTPF 230455Z AUTO 13003KT 10SM SCT110 25/23 A3009 RMK AO2

VFR

25°C / 23°C

[Više]
Vetar 90º 3kt
Vidljivost >10km
Prognoza -
Oblaci Scattered Clouds 11000ft
Pritisak
Promena -
Neobrađeno KTPF 230435Z AUTO 09003KT 10SM SCT110 25/23 A3009 RMK AO2

VFR

25°C / 23°C

[Više]
Vetar variable 0kt
Vidljivost >10km
Prognoza -
Oblaci Scattered Clouds 11000ft
Pritisak
Promena -
Neobrađeno KTPF 230415Z AUTO 00000KT 10SM SCT110 25/23 A3009 RMK AO2

VFR

25°C / 23°C

[Više]
Vetar 110º 4kt
Vidljivost >10km
Prognoza -
Oblaci Scattered Clouds 11000ft
Pritisak
Promena -
Neobrađeno KTPF 230355Z AUTO 11004KT 10SM SCT110 25/23 A3009 RMK AO2

rainNOW

0.0 mm
0.0 mm
0.0 mm
0.0 mm
0.0 mm
0.0 mm
0.0 mm
0.0 mm
0.0 mm
0.0 mm
0.0 mm
0.0 mm

Trenutni satelitski snimci za Тампа, Сједињене Државе

Marker lokacije postavljen je na Тампа. [Više]

Satelitski snimci u realnom vremenu kombinuju vidljivu svetlost tokom dana sa infracrvenim zračenjem tokom noći. Noću slika nije tamna jer infracrveno zračenje može otkriti temperaturne razlike. Nažalost, niski oblaci i magla teško se mogu razlikovati od temperature zemlje tako da mogu biti skoro nevidljivi tokom noći. Meteosat satelitski snimci za Evropu se ažuriraju u realnom vremenu na svakih 5 minuta. Slnimci GOES-16/GOES-17 (Severna i Južna Amerika) and Himawari (Azia) ažuriraju se na svakih 10 minuta.

Radar i padavine kratka prognoza za Тампа

Marker lokacije postavljen je na Тампа. Ova animacija prikazuje radar padavina za poslednji sat, kao i 1h prognozu. Moguće je da rominjanje i slab sneg ne budu vidljivi na ovom radaru. Intezitet padavina je predstavljen bojama koje varijaju od svetlo plave do jako ljubičaste.